Joao Soares

Chief Scout - Pacos de Ferreira
22 Feb 2027
Monday
Process

Personality

Adaptability (3) Ambition (9) Controversy (17) Loyalty (7) Pressure (10) Professionalism (15) Sportsmanship (15) Temperament (10)

Profile

Coaching Style Democratic
License National B
Determination 10
Man Management 11
Motivating 8
Discipline 11
Job Satisfaction
95%
Fatigue
0%
Role Chief Scout
Wage 48.1K p/w
Contract 14.03.2027

Performance

Behaviour Good
Training Effectiveness
32%
Player Development
20%
Injury Prevention
50%
Tactical Implementation
20%

Recent Events

Assessed a player now
Contract negotiation started now
Assessed a player now
Contract negotiation started now
Assessed a player now
Assessed a player now
Contract negotiation started now
Assessed a player now

Currently Monitoring

181
Player Club Status Ability Confidence Watched Last Observed Latest Vote
Ayanda Jiyane Golden Arrows Active 95 / 107 40% 1 21.02.2027 -
Gavin Kilkenny Swindon Town Active 109 / 103 40% 1 21.02.2027 -
Charlie Webster Burton Albion Active 117 / 119 40% 7 20.02.2027 -
Jay Matete Milton Keynes Dons Active 121 / 117 40% 2 20.02.2027 -
Connor Barrett Walsall Active 103 / 98 40% 3 19.02.2027 -
Lewis Freestone Stevenage Active 101 / 111 40% 5 19.02.2027 -
Mésaque Djú Portimonense Active 96 / 103 40% 1 19.02.2027 -
Kyle Jurgens Maritzburg United Active 105 / 116 40% 1 19.02.2027 -
António Eirô Lokomotiv Sofia Active 103 / 104 40% 1 18.02.2027 -
Daniel Kyerewaa Reading Active 108 / 106 40% 1 17.02.2027 -
Stefan Tomović Spartak Subotica Active 110 / 101 40% 1 17.02.2027 -
Johnly Yfeko Exeter City Active 105 / 114 40% 1 15.02.2027 -
Thulani Mabaso Platinum Stars Active 109 / 105 40% 1 15.02.2027 -
Dominik Pleštil Bohemians 1905 Active 106 / 117 40% 2 14.02.2027 -
Sebastian Nebyla Jablonec Active 112 / 121 40% 1 14.02.2027 -
Akinkunmi Amoo Ismaily Active 130 / 120 40% 8 13.02.2027 -
Njegoš Petrović Vojvodina Active 129 / 125 40% 2 12.02.2027 -
Sinoxolo Kwayiba Chippa United Active 125 / 101 40% 2 12.02.2027 -
Diego Murillo Málaga Active 124 / 110 40% 1 10.02.2027 -
Petr Juliš Slovan Liberec Active 115 / 116 40% 1 10.02.2027 -
Mark Helm Fleetwood Town Active 108 / 106 40% 1 10.02.2027 -
Baldovino Cimino Cosenza Active 106 / 117 40% 1 08.02.2027 -
Rafael Profini Metalist Active 110 / 116 40% 1 05.02.2027 -
Fezile Gcaba Maritzburg United Active 92 / 95 40% 2 04.02.2027 -
Ibrahim Tarek Masr El Makasa Active 128 / 130 40% 5 03.02.2027 -
Luca Connell Barnsley Active 109 / 118 40% 3 03.02.2027 -
Tiago Ribeiro Oliveirense Active 101 / 108 40% 1 03.02.2027 -
Vitalii Dakhnovskyi Bukovyna Active 110 / 116 40% 4 02.02.2027 -
Zlatan Šehović Dukla Prague Active 118 / 102 40% 1 02.02.2027 -
Darijo Grujčić Wisla Krakow Active 98 / 120 40% 2 31.01.2027 -
Terry Yegbe Lech Active 115 / 130 40% 1 30.01.2027 -
Giannis Apostolakis OFI Active 110 / 123 40% 1 29.01.2027 -
Doğucan Haspolat Westerlo Active 114 / 128 40% 1 29.01.2027 -
Prestige Mboungou TSC Active 101 / 101 40% 1 29.01.2027 -
Thulani Phiri Platinum Stars Active 117 / 100 40% 1 26.01.2027 -
Nikola Stanković Cukaricki Active 123 / 119 40% 1 26.01.2027 -
Péter Baráth Sigma Olomouc Active 108 / 110 40% 1 25.01.2027 -
Goodman Mosele Chippa United Active 115 / 118 40% 1 24.01.2027 -
Andrea Ciofi Cesena Active 119 / 122 40% 1 24.01.2027 -
Dominik Piła Cracovia Active 111 / 115 40% 1 23.01.2027 -
Šimon Gabriel Slovan Liberec Active 116 / 120 40% 1 23.01.2027 -
Lebogang Erasmus Platinum Stars Active 115 / 102 40% 3 22.01.2027 -
Solly Khunyedi Bloemfontein Celtic Active 92 / 95 40% 1 22.01.2027 -
Lazar Mijović Cukaricki Active 111 / 103 40% 1 22.01.2027 -
Kyreece Lisbie Colchester United Active 112 / 116 40% 1 21.01.2027 -
Josué Tiendrébéogo IMT Active 102 / 105 40% 1 21.01.2027 -
Kai Cipot Veres Active 109 / 100 40% 1 19.01.2027 -
Milan Roganović Partizan Active 117 / 105 40% 1 19.01.2027 -
Niklas Vesterlund Utrecht Active 120 / 113 40% 1 18.01.2027 -
Moha Karpaty Active 123 / 112 40% 1 17.01.2027 -
Paulo Vitor Akron Active 114 / 124 40% 1 12.01.2027 -
Ali Soliman Masr El Makasa Rejected 124 / 135 40% 2 11.01.2027 Needs More Info
Louay Ben Hassine Radnicki 1923 Active 106 / 116 40% 1 11.01.2027 -
Benjamin Kanurić Admira Wacker Active 116 / 110 40% 6 07.01.2027 -
Matías Lacava Vizela Active 117 / 103 40% 1 05.01.2027 -
Artem Slesar Zorya Active 119 / 111 40% 1 05.01.2027 -
David Pech Mlada Boleslav Active 110 / 110 40% 1 04.01.2027 -
David Buchta Radnicki 1923 Rejected 121 / 109 40% 2 03.01.2027 Needs More Info
Juan Bezerra Zamalek Active 126 / 112 40% 2 02.01.2027 -
Erick Ngcobo Black Aces Active 99 / 104 40% 4 02.01.2027 -
Adil Taoui Lokomotiv Sofia Active 109 / 98 40% 1 02.01.2027 -
Braian Álvarez Arsenal Tula Active 114 / 106 40% 1 31.12.2026 -
Harry Cornick AFC Wimbledon Active 103 / 107 40% 1 31.12.2026 -
Nicolás Arévalo Metalist Active 124 / 121 40% 1 30.12.2026 -
Jonathan Sulemana BA All Stars Active 102 / 112 40% 1 30.12.2026 -
Charles Vernam Grimsby Town Active 107 / 110 40% 1 28.12.2026 -
Arinaldo Rrapaj Kolos Active 103 / 114 40% 2 27.12.2026 -
Armando Lopes Felgueiras Active 110 / 106 40% 1 27.12.2026 -
Lucas Lima Ceará Active 125 / 105 40% 2 25.12.2026 -
Emi Rodriguez Leon Active 124 / 124 40% 1 25.12.2026 -
Rui Pedro Chaves Active 117 / 107 40% 1 25.12.2026 -
Lucho Vega Adana Demirspor Active 92 / 102 40% 1 23.12.2026 -
Agustín Ramírez Inter Rejected 124 / 98 40% 2 22.12.2026 Needs More Info
Muharrem Jashari LNZ Rejected 126 / 114 40% 1 22.12.2026 Needs More Info
Uroš Miladinović Cukaricki Active 115 / 116 40% 1 21.12.2026 -
Igor Formiga Mirassol Active 112 / 124 40% 1 21.12.2026 -
Azola Matrose Chippa United Active 91 / 111 40% 1 20.12.2026 -
Wiktor Długosz Korona Active 112 / 113 40% 1 20.12.2026 -
Yairo Moreno Helsingborg Active 103 / 114 40% 2 18.12.2026 -
Filip Zorvan Jablonec Active 122 / 119 40% 1 18.12.2026 -
Velemseni Ndwandwe Golden Arrows Active 97 / 104 40% 2 17.12.2026 -
Brian Figueroa Morelia Active 102 / 108 40% 2 17.12.2026 -
Moustafa Zeidan El Masry Active 132 / 109 40% 1 16.12.2026 -
Lebogang Zwane Black Aces Active 94 / 100 40% 3 15.12.2026 -
Kelly Saravanan Salford City Active 105 / 113 40% 1 15.12.2026 -
Iván Martos IMT Active 103 / 110 40% 1 15.12.2026 -
Carlos Gutiérrez Montana Active 110 / 104 40% 1 12.12.2026 -
Lewis Wing Reading Active 116 / 112 40% 1 09.12.2026 -
Joel Romero America de Cali Active 105 / 116 40% 2 07.12.2026 -
Rok Stojanovic NK Domzale Rejected 117 / 101 40% 1 07.12.2026 Needs More Info
Jarleysom Portimonense Rejected 117 / 121 40% 1 07.12.2026 Needs More Info
Rodin Quiñónes Dinamo Batumi Active 122 / 101 40% 3 02.12.2026 -
Oscar Garrido Dukla Prague Active 125 / 112 40% 3 01.12.2026 -
Rafa Soares Estrela da Amadora Active 122 / 127 40% 1 01.12.2026 -
Stanislav Shopov NK Osijek Active 125 / 110 40% 1 30.11.2026 -
Jordan Graham Newport County Active 111 / 112 40% 1 28.11.2026 -
Vinko Rozić Istra 1961 Active 107 / 114 40% 3 27.11.2026 -
Razvan Puscas Astra Active 123 / 124 40% 2 27.11.2026 -
Simon Ramabu Polokwane City Active 119 / 104 40% 1 27.11.2026 -
Franco Vedoya Central Norte Active 123 / 107 40% 1 25.11.2026 -
Solomon John Mlada Boleslav Active 125 / 124 40% 1 23.11.2026 -
Wallace Yan Flamengo Active 124 / 118 40% 2 22.11.2026 -
Gustavo Torres Atletico Nacional Active 130 / 118 40% 1 22.11.2026 -
Davo Penafiel Active 111 / 116 40% 2 21.11.2026 -
Heinz Mörschel Vissel Kobe Active 103 / 119 40% 2 21.11.2026 -
Carlo Adriano Queretaro Active 103 / 110 40% 2 18.11.2026 -
Kermit Manyama Ajax Cape Town Active 104 / 110 40% 1 18.11.2026 -
Rafael Barbosa Chaves Active 114 / 104 40% 1 17.11.2026 -
Kenedy Pachuca Active 115 / 110 40% 1 17.11.2026 -
Edarlyn Reyes Arsenal Tula Active 97 / 112 40% 1 16.11.2026 -
Fabián Suárez Chalares Aguilas Doradas Active 123 / 120 40% 3 15.11.2026 -
Noah Ganaus OB Active 107 / 109 40% 1 15.11.2026 -
Lucas Evangelista Palmeiras Active 120 / 125 40% 1 13.11.2026 -
Jhonatan Candia Barracas Central Active 118 / 122 40% 1 13.11.2026 -
Alejandro Andrade Morelia Active 114 / 95 40% 1 12.11.2026 -
Filip Szymczak Zaglebie Active 117 / 114 40% 1 11.11.2026 -
Carlos Gruezo Santos Laguna Active 131 / 126 40% 1 11.11.2026 -
Jonathan Arteaga Veracruz Active 115 / 131 40% 1 10.11.2026 -
Afonso Peixoto Felgueiras Active 105 / 108 40% 1 10.11.2026 -
Aldair Zárate Atletico Bucaramanga Active 110 / 119 40% 2 07.11.2026 -
Emiliano Marcondes OB Active 109 / 100 40% 1 06.11.2026 -
Franco Fagúndez Estudiantes Active 114 / 113 40% 4 05.11.2026 -
Santiago Jiménez Deportivo Pasto Active 122 / 125 40% 1 05.11.2026 -
Diego Gallegos Morelia Active 114 / 99 40% 1 05.11.2026 -
Ante Bajić SV Ried Active 117 / 116 40% 1 03.11.2026 -
Edwar López Deportes Tolima Active 130 / 127 40% 2 02.11.2026 -
Félix Charrupí Atletico Bucaramanga Active 114 / 105 40% 2 01.11.2026 -
Yeferson Rodallega Envigado Active 110 / 106 40% 2 01.11.2026 -
Valentino Aguirre La Equidad Active 113 / 113 40% 1 01.11.2026 -
David Barbona Defensa y Justicia Active 114 / 124 40% 4 30.10.2026 -
Abraham Ofori WAFA Active 112 / 112 40% 2 30.10.2026 -
Lucas Di Yorio Santos Laguna Active 115 / 118 40% 2 28.10.2026 -
Horacio Tijanovich Central Córdoba SdE Active 118 / 116 40% 1 26.10.2026 -
Przemysław Płacheta Dukla Prague Active 129 / 109 40% 1 22.10.2026 -
Bruno José Atletico Goianiense Active 108 / 111 40% 1 22.10.2026 -
Maximiliano Meléndez Chacarita Juniors Active 114 / 112 40% 1 21.10.2026 -
Federico Bicoro Gamba Osaka Active 124 / 117 40% 1 19.10.2026 -
Darlan Mendes Sparta Prague Active 112 / 119 40% 1 19.10.2026 -
Daniel Arcila Leon Active 119 / 108 40% 1 18.10.2026 -
Jose Barrios Cortulua Active 122 / 119 40% 1 18.10.2026 -
Camilo Perez Cortulua Active 121 / 110 40% 3 15.10.2026 -
Lucio Castillo Colegiales Active 112 / 107 40% 2 15.10.2026 -
Alberto Soro Dinamo Bucharest Active 104 / 124 40% 1 14.10.2026 -
Eber Moreno Deportivo Pereira Active 113 / 123 40% 1 14.10.2026 -
Mateo Zuleta Once Caldas Active 129 / 119 40% 1 13.10.2026 -
Andrés Colorado Once Caldas Active 109 / 121 40% 1 11.10.2026 -
Miguel Terceros Santos Active 113 / 115 40% 1 11.10.2026 -
Mateo Garavito Deportivo Pasto Active 107 / 125 40% 2 07.10.2026 -
Iñaki Larthirigoyen San Telmo Active 127 / 120 40% 2 06.10.2026 -
Mateo García Atlas Active 94 / 99 40% 1 06.10.2026 -
Juan David Rueda Alianza Petrolera Active 124 / 99 40% 1 01.10.2026 -
Julián Palacios Envigado Active 121 / 109 40% 1 01.10.2026 -
Nicolás Barrientos All Boys Active 107 / 122 40% 1 28.09.2026 -
Manuel Gutierrez Veracruz Active 127 / 119 40% 1 26.09.2026 -
Nduduzo Sibiya Golden Arrows Active 118 / 121 40% 1 25.09.2026 -
José Florentín Independiente Rivadavia Active 116 / 129 40% 1 24.09.2026 -
CJ Hamilton Blackpool Active 102 / 108 40% 1 22.09.2026 -
Paulo Victor Queretaro Active 119 / 111 40% 1 21.09.2026 -
Xavier Biscayzacú Defensor Sporting Active 130 / 135 40% 2 16.09.2026 -
Santiago Toloza O'Higgins Active 114 / 115 40% 1 16.09.2026 -
Federico Versaci Talleres Active 118 / 112 40% 1 14.09.2026 -
Federico Martínez Liverpool Montevideo Active 130 / 114 40% 1 12.09.2026 -
Rickelme Sport Recife Active 71 / 81 40% 1 11.09.2026 -
Nahuel Herrera Penarol Active 123 / 127 40% 1 11.09.2026 -
Hervin Goyes Deportivo Pasto Active 116 / 116 40% 1 10.09.2026 -
Lucas Agazzi Defensor Sporting Active 118 / 118 40% 1 09.09.2026 -
Mamady Cissé Atlético Mineiro Active 91 / 107 40% 1 09.09.2026 -
Benedetti Palmeiras Active 98 / 113 40% 1 08.09.2026 -
Juan Giménez Rosario Central Active 111 / 132 40% 1 08.09.2026 -
Sidney Bahia Active 84 / 100 40% 1 02.09.2026 -
Gusttavo Flamengo Active 95 / 77 40% 1 02.09.2026 -
Halam Loboa Independiente Medellin Active 121 / 135 40% 1 01.09.2026 -
Ezequiel Burdin Defensa y Justicia Active 109 / 112 40% 1 01.09.2026 -
Samuel Lucero Defensa y Justicia Active 117 / 125 40% 1 31.08.2026 -
Yílmar Velásquez Santa Fe Active 107 / 112 40% 1 31.08.2026 -
Da Mata Flamengo Active 77 / 95 40% 1 10.08.2026 -
Júlio Fidelis Fluminense Active 92 / 96 40% 1 10.08.2026 -
Nicolás Azambuja Danubio Active 105 / 124 40% 1 06.08.2026 -
Louback Atlético Mineiro Active 100 / 84 40% 1 06.08.2026 -
Matheus Pedro Fluminense Active 67 / 74 40% 1 05.08.2026 -
Tobías Reinhart Universidad de Chile Active 134 / 129 40% 1 01.08.2026 -